This is the latest recevied weather packets stored in our database for station/object MB7UKY-10. If no packets are shown the sender has not sent any weather packets the latest 10 day(s).
| Time | Temp. | Humidity | Pressure | Rain* | Wind** | Luminosity | Snow |
|---|---|---|---|---|---|---|---|
| 1777555172 | 21.11° C | 42% | 1019.1 hPa | - | - | - | - |
| 1777554272 | 21.11° C | 43% | 1019.2 hPa | - | - | - | - |
| 1777553371 | 21.11° C | 42% | 1019.2 hPa | - | - | - | - |
| 1777552470 | 21.11° C | 43% | 1019.3 hPa | - | - | - | - |
| 1777551569 | 20° C | 44% | 1019.3 hPa | - | - | - | - |
| 1777550669 | 20° C | 44% | 1019.5 hPa | - | - | - | - |
| 1777549768 | 20° C | 45% | 1019.6 hPa | - | - | - | - |
| 1777548867 | 20° C | 45% | 1019.7 hPa | - | - | - | - |
| 1777547967 | 20° C | 45% | 1019.8 hPa | - | - | - | - |
| 1777547066 | 20° C | 45% | 1020 hPa | - | - | - | - |
| 1777546165 | 19.44° C | 45% | 1020.1 hPa | - | - | - | - |
| 1777545264 | 19.44° C | 46% | 1020.2 hPa | - | - | - | - |
| 1777544364 | 19.44° C | 46% | 1020.4 hPa | - | - | - | - |
| 1777543463 | 19.44° C | 46% | 1020.5 hPa | - | - | - | - |
| 1777542562 | 19.44° C | 46% | 1020.6 hPa | - | - | - | - |
| 1777541661 | 19.44° C | 46% | 1020.5 hPa | - | - | - | - |
| 1777540761 | 19.44° C | 46% | 1020.5 hPa | - | - | - | - |
| 1777539860 | 19.44° C | 46% | 1020.6 hPa | - | - | - | - |
| 1777538962 | 19.44° C | 47% | 1020.7 hPa | - | - | - | - |
| 1777538058 | 19.44° C | 47% | 1020.8 hPa | - | - | - | - |
| 1777537158 | 19.44° C | 47% | 1020.7 hPa | - | - | - | - |
| 1777536257 | 19.44° C | 48% | 1020.9 hPa | - | - | - | - |
| 1777535356 | 18.89° C | 49% | 1021 hPa | - | - | - | - |
| 1777534455 | 18.33° C | 50% | 1021 hPa | - | - | - | - |
| 1777533554 | 17.78° C | 50% | 1021.2 hPa | - | - | - | - |
* Rain since midnight (hover to see other rain measurements)
** Current wind speed in m/s (hover to see current wind gust speed)